SCOUT X-1 DEB, 4026

Orbit data source: Space-Track

SCOUT X-1 DEB, 4026 is space debris in LEO originally from a launch on Thu, 16 Feb 1961 UTC launched from the Wallops Island (WLPIS). Debris objects in space refer to the collection of defunct objects orbiting the Earth. Examples of debris include non-operational satellites, rocket bodies, and fragments generated from explosions, collisions, or faulty payload assembly.

Loading next visibility...
Identifier
4026, 1961-004G
Orbit
LEO
Country
Flag of USUS
Related business
Manufacturer
Unknown
Mission
Spacecraft
Bus & Motor
Unknown
Mass
Unknown
Launch date (UTC)
1961-02-16 (65 years ago)
Launch vehicle
Unknown
Launch site
Wallops Island (WLPIS)
Object type
Payload
Rocket body
Debris
Shape & HBR
Unknown
Radar Cross Section
Small (<0.1 m²)

Expand to show TLE details & history
Last TLE update: 5 hours ago

TLE from 5 hours ago
0 SCOUT X-1 DEB
1 04026U 61004G   25258.28365220  .00033452  00000-0  70112-2 0  9993
2 04026  38.8157 103.0031 0401979 113.8638 250.4764 14.18929077 94564
Epoch: 2025-09-15T06:48Z
TLE epoch observation values (Epoch: 2025-09-15T06:48:27.55Z)
Latitude
Longitude
6.39779°
Altitude
935.257 km
Speed
7.331 km/s
True Right ascension
06h 52m 00s
True Declination
0° 00' 00"
Sunlit
Object was in daylight at epoch
Visualization orbit readout
Latitude
Unknown
Longitude
Unknown
Altitude
Unknown
Speed
Unknown
Apparent Right ascension
Unknown
Apparent Declination
Unknown
Sunlit
N/A
Visualization observer readout
Local Sidereal Time
04:51:57
Azimuth
Unknown
Elevation
Unknown
Doppler factor
Unknown
Orbital elements
Apogee altitude
1,121.31 km
Perigee altitude
541.685 km
Semi-major axis
7,209.634 km
Eccentricity
0.0402
Inclination
38.8157°
RAAN
103.0031°
Arg. of periapsis
113.8638°
True anomaly
246.21059°
Mean anomaly
250.4764°
Eccentric anomaly
248.33592°
Mean motion
3.54547 °/min
Orbital period
101.54 mins
BSTAR
0.0070112
Loading maneuver chart data...
Computing Atmospheric mass density...
Loading historical data...
Loading historical data...
Loading historical data...
Loading historical data...
Loading historical data...
Loading historical data...
Loading historical data...

Documentation

Showing up to 5 results
|